QPF
0.00 0.00 0.00 0.00 0.00 0.00 0.00 0.00 0.00 0.00 0.00 0.00 0.00 0.00 0.00 0.00 0.00 0.00 0.00 0.00 0.00 0.00 0.00 0.00 0.00 0.00 0.00 0.00 0.00 0.00 0.00 0.00 0.00 0.00 0.00 0.00 0.00 0.00 0.00 0.00 0.00 0.00 0.00 0.00
0.00 0.00 0.00 0.00 0.00 0.00 0.00 0.00 0.00 0.00 0.00 0.00 0.00 0.00 0.00 0.00 0.00 0.00 0.00 0.00 0.00 0.00 0.00 0.00 0.00 0.00 0.00 0.00 0.00 0.00 0.00 0.00 0.00 0.00 0.00 0.00 0.00 0.00 0.00 0.00 0.00 0.00 0.00 0.00
0.00 0.00 0.00 0.00 0.00 0.00 0.00 0.00 0.00 0.00 0.00 0.00 0.00 0.00 0.00 0.00 0.00 0.00 0.00 0.00 0.00 0.00 0.00 0.00 0.00 0.00 0.00 0.00 0.00 0.00 0.00 0.00 0.00 0.00 0.00 0.00 0.00 0.00 0.00 0.00 0.00 0.00 0.00 0.00
0.00 0.00 0.00 0.00 0.00 0.00 0.00 0.00 0.00 0.00 0.00 0.00 0.00 0.00 0.00 0.00 0.00 0.00 0.00 0.00 0.00 0.00 0.00 0.00 0.00 0.00 0.00 0.00 0.00 0.00 0.00 0.00 0.00 0.00 0.00 0.00 0.00 0.00 0.00 0.00 0.00 0.00 0.00 0.00
0.00 0.00 0.00 0.00 0.00 0.00 0.00 0.00 0.00 0.00 0.00 0.00 0.00 0.00 0.00 0.00 0.00 0.00 0.00 0.00 0.00 0.00 0.00 0.00 0.00 0.00 0.00 0.00 0.00 0.00 0.00 0.00 0.00 0.00 0.00 0.00 0.00 0.00 0.00 0.00 0.00 0.00 0.00 0.00
0.00 0.00 0.00 0.00 0.00 0.00 0.00 0.00 0.00 0.00 0.00 0.00 0.00 0.00 0.00 0.00 0.00 0.00 0.00 0.00 0.00 0.00 0.00 0.00 0.00 0.00 0.00 0.00 0.00 0.00 0.00 0.00 0.00 0.00 0.00 0.00 0.00 0.00 0.00 0.00 0.00 0.00 0.00 0.00
0.00 0.00 0.00 0.00 0.00 0.00 0.00 0.00 0.00 0.00 0.00 0.00 0.00 0.00 0.00 0.00 0.00 0.00 0.00 0.00 0.00 0.00 0.00 0.00 0.00 0.00 0.00 0.00 0.00 0.00 0.00 0.00 0.00 0.00 0.00 0.00 0.00 0.00 0.00 0.00 0.00 0.00 0.00 0.00
0.00 0.00 0.00 0.00 0.00 0.00 0.00 0.00 0.00 0.00 0.00 0.00 0.00 0.00 0.00 0.00 0.00 0.00 0.00 0.00 0.00 0.00 0.00 0.00 0.00 0.00 0.00 0.00 0.00 0.00 0.00 0.00 0.00 0.00 0.00 0.00 0.00 0.00 0.00 0.00 0.00 0.00 0.00 0.00
0.00 0.00 0.00 0.00 0.00 0.00 0.00 0.00 0.00 0.00 0.00 0.00 0.00 0.00 0.00 0.00 0.00 0.00 0.00 0.00 0.00 0.00 0.00 0.00 0.00 0.00 0.00 0.00 0.00 0.00 0.00 0.00 0.00 0.00 0.00 0.00 0.00 0.00 0.00 0.00 0.00 0.00 0.00 0.00
0.00 0.00 0.00 0.00 0.00 0.00 0.00 0.00 0.00 0.00 0.00 0.00 0.00 0.00 0.00 0.00 0.00 0.00 0.00 0.00 0.00 0.00 0.00 0.00 0.00 0.00 0.00 0.00 0.00 0.00 0.00 0.00 0.00 0.00 0.00 0.00 0.00 0.00 0.00 0.00 0.00 0.00 0.00 0.00
0.00 0.00 0.00 0.00 0.00 0.00 0.00 0.00 0.00 0.00 0.00 0.00 0.00 0.00 0.00 0.00 0.00 0.00 0.00 0.00 0.00 0.00 0.00 0.00 0.00 0.00 0.00 0.00 0.00 0.00 0.00 0.00 0.00 0.00 0.00 0.00 0.00 0.00 0.00 0.00 0.00 0.01 0.01 0.01
0.00 0.00 0.00 0.00 0.00 0.00 0.00 0.00 0.00 0.00 0.00 0.00 0.00 0.00 0.00 0.00 0.00 0.00 0.00 0.00 0.00 0.00 0.00 0.00 0.00 0.00 0.00 0.00 0.00 0.00 0.00 0.00 0.00 0.00 0.00 0.00 0.00 0.00 0.00 0.00 0.00 0.01 0.01 0.01
0.00 0.00 0.00 0.00 0.00 0.00 0.00 0.00 0.00 0.00 0.00 0.00 0.00 0.00 0.00 0.00 0.00 0.00 0.00 0.00 0.00 0.00 0.00 0.00 0.00 0.00 0.00 0.00 0.00 0.00 0.00 0.00 0.00 0.00 0.00 0.00 0.00 0.01 0.01 0.01 0.01 0.01 0.01 0.01
0.00 0.00 0.00 0.00 0.00 0.00 0.00 0.00 0.00 0.00 0.00 0.00 0.00 0.00 0.00 0.00 0.00 0.00 0.00 0.00 0.00 0.00 0.00 0.00 0.00 0.00 0.00 0.00 0.00 0.00 0.00 0.00 0.00 0.00 0.00 0.00 0.01 0.01 0.01 0.02 0.02 0.01 0.01 0.01
0.00 0.00 0.00 0.00 0.00 0.00 0.00 0.00 0.00 0.00 0.00 0.00 0.00 0.00 0.00 0.00 0.00 0.00 0.00 0.00 0.00 0.00 0.00 0.00 0.00 0.00 0.00 0.00 0.00 0.00 0.00 0.00 0.00 0.00 0.00 0.01 0.01 0.01 0.02 0.02 0.02 0.02 0.01 0.01
0.00 0.00 0.00 0.00 0.00 0.00 0.00 0.00 0.00 0.00 0.00 0.00 0.00 0.00 0.00 0.00 0.00 0.00 0.00 0.00 0.00 0.00 0.00 0.00 0.00 0.00 0.00 0.00 0.00 0.00 0.00 0.00 0.00 0.00 0.00 0.01 0.02 0.02 0.02 0.03 0.03 0.02 0.02 0.01
0.00 0.00 0.00 0.00 0.00 0.00 0.00 0.00 0.00 0.00 0.00 0.00 0.00 0.00 0.00 0.00 0.00 0.00 0.00 0.00 0.00 0.00 0.00 0.00 0.00 0.00 0.00 0.00 0.00 0.00 0.00 0.00 0.00 0.01 0.01 0.02 0.02 0.02 0.03 0.03 0.03 0.03 0.02 0.01
0.00 0.00 0.00 0.00 0.00 0.00 0.00 0.00 0.00 0.00 0.00 0.00 0.00 0.00 0.00 0.00 0.00 0.00 0.00 0.00 0.00 0.00 0.00 0.00 0.00 0.00 0.00 0.00 0.00 0.00 0.00 0.00 0.01 0.01 0.02 0.02 0.02 0.02 0.03 0.03 0.03 0.03 0.02 0.02
0.00 0.00 0.00 0.00 0.00 0.00 0.00 0.00 0.00 0.00 0.00 0.00 0.00 0.00 0.00 0.00 0.00 0.00 0.00 0.00 0.00 0.00 0.00 0.00 0.00 0.00 0.00 0.00 0.00 0.00 0.00 0.01 0.01 0.02 0.02 0.02 0.02 0.02 0.02 0.03 0.03 0.03 0.03 0.02
0.00 0.00 0.00 0.00 0.00 0.00 0.00 0.00 0.00 0.00 0.00 0.00 0.00 0.00 0.00 0.00 0.00 0.00 0.00 0.00 0.00 0.00 0.00 0.00 0.00 0.00 0.00 0.00 0.00 0.01 0.01 0.02 0.02 0.02 0.02 0.02 0.02 0.03 0.03 0.03 0.03 0.03 0.02 0.02
0.00 0.00 0.00 0.00 0.00 0.00 0.00 0.00 0.00 0.00 0.00 0.00 0.00 0.00 0.00 0.00 0.00 0.00 0.00 0.00 0.00 0.00 0.00 0.00 0.00 0.00 0.00 0.01 0.01 0.01 0.01 0.02 0.02 0.02 0.03 0.03 0.03 0.03 0.03 0.03 0.03 0.03 0.03 0.03
0.00 0.00 0.00 0.00 0.00 0.00 0.00 0.00 0.00 0.00 0.00 0.00 0.00 0.00 0.00 0.00 0.00 0.00 0.00 0.00 0.00 0.00 0.00 0.00 0.00 0.00 0.01 0.01 0.01 0.01 0.01 0.02 0.02 0.03 0.03 0.04 0.04 0.04 0.04 0.03 0.04 0.03 0.03 0.03
0.00 0.00 0.00 0.00 0.00 0.00 0.00 0.00 0.00 0.00 0.00 0.00 0.00 0.00 0.00 0.00 0.00 0.00 0.00 0.00 0.00 0.00 0.00 0.00 0.00 0.00 0.01 0.01 0.01 0.01 0.01 0.02 0.03 0.03 0.04 0.04 0.04 0.05 0.05 0.04 0.04 0.04 0.04 0.03
0.00 0.00 0.00 0.00 0.00 0.00 0.00 0.00 0.00 0.00 0.00 0.00 0.00 0.00 0.00 0.00 0.00 0.00 0.00 0.00 0.00 0.00 0.00 0.00 0.00 0.00 0.01 0.00 0.01 0.01 0.02 0.02 0.03 0.03 0.04 0.04 0.04 0.04 0.04 0.04 0.04 0.03 0.03 0.02
0.00 0.00 0.00 0.00 0.00 0.00 0.00 0.00 0.00 0.00 0.00 0.00 0.00 0.00 0.00 0.00 0.00 0.00 0.00 0.00 0.00 0.00 0.00 0.00 0.00 0.00 0.00 0.00 0.01 0.02 0.02 0.03 0.04 0.05 0.05 0.05 0.04 0.04 0.03 0.03 0.03 0.03 0.02 0.02
0.00 0.00 0.00 0.00 0.00 0.00 0.00 0.00 0.00 0.00 0.00 0.00 0.00 0.00 0.00 0.00 0.00 0.00 0.00 0.00 0.00 0.00 0.00 0.00 0.00 0.00 0.00 0.01 0.01 0.02 0.03 0.03 0.03 0.04 0.04 0.04 0.03 0.03 0.03 0.03 0.02 0.02 0.02 0.02
0.00 0.00 0.00 0.00 0.00 0.00 0.00 0.00 0.00 0.00 0.00 0.00 0.00 0.00 0.00 0.00 0.00 0.00 0.00 0.00 0.00 0.00 0.00 0.00 0.00 0.00 0.01 0.01 0.02 0.02 0.03 0.03 0.03 0.04 0.03 0.03 0.03 0.03 0.03 0.02 0.02 0.02 0.02 0.01
MSLP
1018.10 1018.32 1018.49 1018.60 1018.63 1018.56 1018.41 1018.17 1017.86 1017.52 1017.17 1016.85 1016.60 1016.42 1016.33 1016.32 1016.36 1016.43 1016.49 1016.51 1016.48 1016.39 1016.25 1016.06 1015.84 1015.61 1015.37 1015.15 1014.93 1014.70 1014.45 1014.18 1013.88 1013.54 1013.17 1012.78 1012.38 1011.98 1011.58 1011.18 1010.78 1010.37 1009.93 1009.47
1018.18 1018.26 1018.26 1018.18 1018.02 1017.81 1017.54 1017.24 1016.94 1016.66 1016.41 1016.24 1016.13 1016.10 1016.14 1016.22 1016.32 1016.41 1016.48 1016.49 1016.45 1016.35 1016.20 1016.02 1015.81 1015.59 1015.37 1015.13 1014.89 1014.63 1014.33 1013.99 1013.62 1013.20 1012.77 1012.31 1011.86 1011.41 1010.97 1010.53 1010.09 1009.64 1009.17 1008.67
1018.31 1018.25 1018.09 1017.84 1017.54 1017.19 1016.84 1016.51 1016.22 1015.99 1015.84 1015.78 1015.80 1015.88 1016.01 1016.16 1016.30 1016.41 1016.47 1016.47 1016.42 1016.31 1016.15 1015.97 1015.78 1015.56 1015.34 1015.09 1014.82 1014.50 1014.14 1013.73 1013.28 1012.79 1012.28 1011.76 1011.25 1010.75 1010.27 1009.80 1009.33 1008.85 1008.35 1007.82
1018.43 1018.25 1017.96 1017.59 1017.17 1016.74 1016.34 1016.00 1015.73 1015.56 1015.50 1015.53 1015.64 1015.80 1015.99 1016.17 1016.33 1016.43 1016.48 1016.46 1016.38 1016.26 1016.10 1015.92 1015.72 1015.50 1015.26 1014.98 1014.66 1014.29 1013.87 1013.38 1012.85 1012.29 1011.71 1011.14 1010.58 1010.04 1009.52 1009.02 1008.52 1008.02 1007.50 1006.96
1018.45 1018.18 1017.81 1017.36 1016.89 1016.43 1016.02 1015.70 1015.48 1015.38 1015.38 1015.48 1015.66 1015.87 1016.08 1016.27 1016.42 1016.50 1016.52 1016.47 1016.36 1016.21 1016.03 1015.83 1015.61 1015.37 1015.10 1014.78 1014.41 1013.98 1013.49 1012.94 1012.34 1011.72 1011.08 1010.46 1009.86 1009.29 1008.75 1008.22 1007.71 1007.19 1006.66 1006.11
1018.31 1017.99 1017.58 1017.11 1016.64 1016.20 1015.83 1015.57 1015.41 1015.38 1015.46 1015.61 1015.83 1016.06 1016.27 1016.45 1016.56 1016.60 1016.57 1016.48 1016.33 1016.14 1015.93 1015.70 1015.44 1015.16 1014.84 1014.48 1014.05 1013.56 1013.01 1012.40 1011.75 1011.08 1010.41 1009.76 1009.14 1008.55 1007.99 1007.45 1006.92 1006.39 1005.85 1005.30
1017.98 1017.64 1017.23 1016.80 1016.38 1016.01 1015.72 1015.54 1015.48 1015.52 1015.66 1015.86 1016.09 1016.32 1016.52 1016.65 1016.72 1016.70 1016.62 1016.47 1016.27 1016.04 1015.78 1015.49 1015.19 1014.86 1014.49 1014.07 1013.58 1013.04 1012.44 1011.79 1011.11 1010.42 1009.73 1009.06 1008.43 1007.82 1007.25 1006.70 1006.15 1005.61 1005.06 1004.51
1017.48 1017.16 1016.79 1016.43 1016.10 1015.83 1015.66 1015.58 1015.61 1015.73 1015.92 1016.15 1016.39 1016.60 1016.75 1016.84 1016.85 1016.77 1016.62 1016.41 1016.16 1015.87 1015.55 1015.22 1014.86 1014.48 1014.05 1013.58 1013.05 1012.46 1011.83 1011.16 1010.46 1009.76 1009.07 1008.40 1007.75 1007.14 1006.55 1005.97 1005.41 1004.84 1004.28 1003.72
1016.89 1016.61 1016.32 1016.05 1015.83 1015.68 1015.63 1015.66 1015.78 1015.97 1016.19 1016.43 1016.65 1016.83 1016.93 1016.96 1016.90 1016.76 1016.55 1016.28 1015.97 1015.63 1015.26 1014.87 1014.46 1014.02 1013.55 1013.03 1012.47 1011.86 1011.21 1010.54 1009.84 1009.15 1008.46 1007.78 1007.13 1006.49 1005.87 1005.26 1004.66 1004.06 1003.48 1002.91
1016.32 1016.08 1015.88 1015.71 1015.61 1015.59 1015.65 1015.78 1015.97 1016.20 1016.44 1016.67 1016.85 1016.97 1017.02 1016.98 1016.85 1016.65 1016.38 1016.06 1015.70 1015.31 1014.90 1014.47 1014.02 1013.54 1013.03 1012.48 1011.90 1011.28 1010.63 1009.96 1009.27 1008.58 1007.90 1007.22 1006.54 1005.88 1005.21 1004.56 1003.90 1003.26 1002.64 1002.05
1015.85 1015.67 1015.55 1015.49 1015.50 1015.59 1015.74 1015.94 1016.17 1016.41 1016.64 1016.83 1016.96 1017.01 1016.99 1016.88 1016.69 1016.43 1016.12 1015.76 1015.36 1014.94 1014.50 1014.03 1013.55 1013.04 1012.51 1011.95 1011.36 1010.74 1010.10 1009.44 1008.76 1008.08 1007.39 1006.69 1005.99 1005.28 1004.56 1003.84 1003.12 1002.42 1001.76 1001.14
1015.54 1015.43 1015.38 1015.41 1015.52 1015.69 1015.90 1016.14 1016.38 1016.60 1016.78 1016.91 1016.96 1016.94 1016.84 1016.66 1016.42 1016.12 1015.77 1015.39 1014.97 1014.53 1014.07 1013.59 1013.09 1012.56 1012.02 1011.45 1010.85 1010.24 1009.61 1008.96 1008.29 1007.61 1006.91 1006.19 1005.44 1004.68 1003.89 1003.10 1002.32 1001.56 1000.85 1000.20
1015.40 1015.34 1015.37 1015.47 1015.64 1015.86 1016.10 1016.34 1016.56 1016.73 1016.85 1016.90 1016.88 1016.77 1016.60 1016.37 1016.08 1015.75 1015.38 1014.98 1014.55 1014.11 1013.64 1013.15 1012.63 1012.10 1011.54 1010.97 1010.37 1009.76 1009.14 1008.50 1007.83 1007.15 1006.43 1005.67 1004.88 1004.06 1003.21 1002.35 1001.50 1000.68 999.93 999.26
1015.39 1015.38 1015.46 1015.61 1015.82 1016.06 1016.30 1016.52 1016.69 1016.80 1016.85 1016.81 1016.70 1016.53 1016.29 1016.01 1015.69 1015.33 1014.95 1014.55 1014.13 1013.68 1013.21 1012.71 1012.18 1011.64 1011.07 1010.48 1009.88 1009.27 1008.64 1008.00 1007.33 1006.63 1005.90 1005.11 1004.28 1003.41 1002.50 1001.59 1000.68 999.82 999.03 998.35
1015.44 1015.47 1015.58 1015.76 1015.99 1016.23 1016.45 1016.62 1016.74 1016.78 1016.74 1016.63 1016.45 1016.21 1015.93 1015.61 1015.26 1014.90 1014.52 1014.12 1013.70 1013.25 1012.77 1012.26 1011.72 1011.15 1010.56 1009.96 1009.34 1008.71 1008.08 1007.42 1006.75 1006.04 1005.29 1004.48 1003.62 1002.72 1001.78 1000.83 999.90 999.01 998.20 997.51
1015.50 1015.54 1015.68 1015.87 1016.09 1016.30 1016.48 1016.61 1016.66 1016.63 1016.53 1016.35 1016.11 1015.82 1015.51 1015.17 1014.82 1014.46 1014.08 1013.68 1013.26 1012.81 1012.31 1011.78 1011.22 1010.62 1010.00 1009.36 1008.72 1008.07 1007.42 1006.75 1006.07 1005.35 1004.59 1003.78 1002.92 1002.00 1001.06 1000.10 999.16 998.27 997.47 996.78
1015.52 1015.58 1015.71 1015.88 1016.08 1016.26 1016.39 1016.45 1016.44 1016.35 1016.18 1015.95 1015.67 1015.36 1015.03 1014.68 1014.34 1013.98 1013.61 1013.22 1012.79 1012.32 1011.81 1011.26 1010.66 1010.02 1009.37 1008.69 1008.02 1007.34 1006.67 1005.99 1005.29 1004.58 1003.82 1003.02 1002.17 1001.28 1000.35 999.41 998.49 997.63 996.85 996.18
1015.51 1015.55 1015.66 1015.80 1015.95 1016.07 1016.14 1016.14 1016.07 1015.92 1015.71 1015.44 1015.13 1014.81 1014.47 1014.13 1013.79 1013.45 1013.08 1012.69 1012.26 1011.79 1011.25 1010.67 1010.04 1009.37 1008.67 1007.96 1007.25 1006.55 1005.85 1005.16 1004.47 1003.76 1003.02 1002.24 1001.42 1000.57 999.68 998.79 997.92 997.09 996.35 995.72
1015.48 1015.49 1015.55 1015.64 1015.72 1015.77 1015.77 1015.70 1015.56 1015.35 1015.09 1014.80 1014.47 1014.14 1013.81 1013.48 1013.16 1012.82 1012.47 1012.09 1011.66 1011.17 1010.62 1010.02 1009.36 1008.66 1007.94 1007.20 1006.47 1005.75 1005.04 1004.34 1003.65 1002.95 1002.24 1001.49 1000.72 999.91 999.08 998.25 997.44 996.67 995.99 995.40
1015.44 1015.40 1015.40 1015.41 1015.41 1015.37 1015.28 1015.13 1014.92 1014.66 1014.35 1014.03 1013.69 1013.36 1013.03 1012.72 1012.41 1012.09 1011.76 1011.38 1010.96 1010.48 1009.93 1009.32 1008.65 1007.95 1007.21 1006.47 1005.73 1005.00 1004.29 1003.59 1002.91 1002.23 1001.53 1000.82 1000.09 999.34 998.57 997.81 997.06 996.37 995.74 995.22
1015.40 1015.30 1015.22 1015.13 1015.03 1014.89 1014.70 1014.46 1014.17 1013.85 1013.50 1013.14 1012.79 1012.46 1012.14 1011.84 1011.55 1011.25 1010.93 1010.58 1010.18 1009.71 1009.18 1008.59 1007.94 1007.26 1006.54 1005.81 1005.07 1004.36 1003.65 1002.97 1002.29 1001.62 1000.95 1000.27 999.57 998.87 998.16 997.46 996.78 996.16 995.61 995.14
1015.33 1015.15 1014.97 1014.79 1014.57 1014.32 1014.03 1013.69 1013.33 1012.94 1012.55 1012.16 1011.80 1011.46 1011.15 1010.86 1010.59 1010.31 1010.02 1009.70 1009.33 1008.90 1008.42 1007.87 1007.26 1006.61 1005.94 1005.24 1004.54 1003.85 1003.16 1002.49 1001.82 1001.17 1000.51 999.84 999.17 998.50 997.84 997.20 996.59 996.03 995.55 995.15
1015.16 1014.90 1014.64 1014.35 1014.02 1013.66 1013.27 1012.85 1012.41 1011.96 1011.53 1011.11 1010.73 1010.39 1010.09 1009.82 1009.56 1009.32 1009.06 1008.78 1008.45 1008.08 1007.65 1007.16 1006.62 1006.04 1005.42 1004.78 1004.12 1003.46 1002.81 1002.15 1001.50 1000.84 1000.19 999.54 998.88 998.24 997.61 997.01 996.46 995.97 995.55 995.21
1014.84 1014.51 1014.16 1013.78 1013.36 1012.91 1012.43 1011.93 1011.43 1010.94 1010.48 1010.04 1009.66 1009.31 1009.02 1008.76 1008.53 1008.31 1008.09 1007.85 1007.58 1007.26 1006.90 1006.48 1006.02 1005.51 1004.97 1004.39 1003.79 1003.18 1002.55 1001.92 1001.27 1000.62 999.97 999.31 998.67 998.04 997.44 996.88 996.37 995.93 995.58 995.30
1014.32 1013.93 1013.51 1013.06 1012.57 1012.05 1011.51 1010.97 1010.44 1009.92 1009.44 1009.00 1008.61 1008.28 1007.99 1007.74 1007.53 1007.34 1007.15 1006.95 1006.72 1006.47 1006.17 1005.83 1005.45 1005.02 1004.55 1004.04 1003.50 1002.93 1002.34 1001.72 1001.09 1000.44 999.78 999.13 998.49 997.87 997.29 996.76 996.30 995.91 995.61 995.40
1013.61 1013.18 1012.71 1012.21 1011.68 1011.13 1010.56 1010.01 1009.46 1008.95 1008.47 1008.04 1007.67 1007.34 1007.06 1006.83 1006.63 1006.45 1006.28 1006.11 1005.92 1005.71 1005.47 1005.19 1004.87 1004.51 1004.11 1003.67 1003.18 1002.66 1002.10 1001.50 1000.88 1000.24 999.59 998.94 998.30 997.69 997.13 996.64 996.21 995.87 995.62 995.46
1012.77 1012.31 1011.81 1011.29 1010.75 1010.20 1009.64 1009.09 1008.57 1008.08 1007.63 1007.22 1006.86 1006.55 1006.28 1006.05 1005.84 1005.66 1005.50 1005.33 1005.16 1004.98 1004.77 1004.53 1004.27 1003.96 1003.62 1003.23 1002.79 1002.31 1001.78 1001.21 1000.61 999.98 999.34 998.70 998.07 997.49 996.95 996.48 996.10 995.80 995.59 995.48
Thickness
5604 5605 5602 5601 5601 5599 5593 5589 5587 5598 5600 5609 5607 5604 5599 5594 5590 5585 5580 5576 5572 5567 5563 5559 5556 5553 5550 5546 5543 5539 5534 5529 5525 5521 5517 5513 5509 5505 5501 5497 5493 5489 5486 5483
5597 5599 5595 5595 5601 5599 5596 5593 5591 5595 5599 5604 5599 5593 5589 5584 5579 5575 5570 5566 5562 5558 5554 5550 5545 5541 5537 5532 5528 5523 5518 5513 5510 5506 5501 5496 5492 5489 5484 5481 5477 5473 5470 5467
5576 5582 5582 5585 5599 5598 5595 5595 5593 5589 5593 5593 5589 5586 5581 5575 5569 5563 5558 5554 5550 5546 5542 5537 5532 5527 5521 5517 5512 5506 5501 5497 5492 5488 5484 5480 5476 5472 5468 5464 5461 5457 5454 5452
5563 5571 5566 5591 5600 5598 5595 5594 5593 5590 5586 5583 5580 5576 5571 5564 5557 5552 5547 5543 5538 5533 5529 5524 5518 5512 5506 5501 5495 5489 5484 5480 5475 5470 5466 5463 5459 5455 5451 5449 5445 5443 5440 5438
5549 5552 5563 5582 5592 5594 5591 5586 5582 5578 5575 5571 5566 5559 5553 5552 5547 5541 5535 5530 5525 5519 5514 5508 5501 5495 5489 5484 5478 5472 5468 5463 5458 5452 5449 5445 5442 5439 5436 5433 5431 5429 5427 5424
5544 5549 5552 5576 5587 5588 5583 5572 5571 5568 5562 5557 5551 5536 5536 5541 5535 5529 5523 5518 5512 5505 5497 5491 5485 5478 5471 5466 5460 5455 5452 5447 5442 5436 5431 5428 5426 5423 5421 5418 5417 5416 5415 5412
5536 5539 5554 5572 5576 5577 5562 5559 5558 5554 5549 5543 5534 5527 5526 5524 5518 5513 5508 5502 5496 5489 5480 5474 5468 5461 5454 5449 5444 5440 5436 5431 5426 5420 5415 5412 5410 5408 5405 5404 5404 5403 5402 5402
5525 5531 5546 5567 5567 5558 5551 5548 5544 5539 5535 5530 5523 5518 5514 5509 5503 5497 5491 5486 5480 5472 5465 5458 5450 5442 5438 5434 5430 5426 5421 5416 5411 5406 5401 5398 5395 5394 5392 5391 5391 5392 5392 5392
5543 5551 5553 5554 5548 5544 5540 5534 5531 5524 5520 5514 5508 5503 5499 5494 5488 5482 5476 5469 5463 5456 5450 5443 5434 5426 5420 5419 5415 5411 5407 5402 5397 5393 5389 5385 5382 5381 5381 5380 5379 5381 5381 5382
5537 5543 5543 5536 5531 5529 5525 5520 5516 5511 5505 5500 5494 5489 5483 5477 5471 5465 5460 5452 5446 5440 5434 5430 5423 5413 5405 5403 5400 5396 5392 5389 5385 5381 5379 5376 5372 5370 5369 5370 5370 5372 5372 5374
5527 5530 5526 5521 5516 5512 5509 5505 5502 5497 5492 5486 5480 5474 5468 5461 5455 5449 5443 5437 5430 5423 5418 5415 5409 5403 5395 5389 5385 5382 5380 5377 5374 5370 5368 5368 5366 5363 5363 5363 5362 5364 5366 5366
5519 5520 5514 5510 5509 5504 5500 5495 5490 5484 5479 5472 5465 5458 5453 5446 5440 5433 5427 5421 5415 5409 5404 5400 5395 5391 5385 5379 5373 5370 5369 5367 5364 5361 5360 5358 5358 5361 5361 5359 5361 5361 5361 5361
5509 5509 5503 5501 5497 5492 5487 5482 5477 5470 5463 5456 5449 5443 5437 5430 5425 5418 5411 5405 5400 5396 5390 5386 5383 5379 5375 5370 5365 5360 5357 5356 5355 5354 5352 5351 5351 5352 5357 5360 5358 5358 5358 5358
5498 5495 5492 5488 5480 5475 5471 5466 5460 5453 5446 5439 5433 5427 5420 5414 5409 5402 5397 5392 5388 5383 5378 5374 5371 5369 5365 5361 5357 5353 5350 5349 5348 5347 5346 5345 5346 5347 5348 5352 5355 5356 5354 5353
5483 5480 5474 5471 5465 5460 5455 5449 5442 5435 5430 5424 5418 5410 5404 5398 5394 5391 5385 5380 5376 5371 5367 5364 5362 5360 5357 5353 5349 5347 5344 5343 5342 5342 5342 5342 5343 5344 5345 5346 5347 5350 5351 5350
5469 5464 5459 5455 5449 5443 5437 5432 5425 5419 5413 5408 5402 5397 5391 5386 5382 5379 5374 5368 5363 5361 5358 5356 5354 5352 5349 5346 5343 5341 5339 5340 5340 5339 5340 5340 5340 5341 5341 5342 5343 5344 5345 5346
5452 5448 5445 5438 5432 5426 5420 5414 5407 5402 5397 5392 5389 5385 5379 5374 5371 5369 5366 5360 5354 5351 5348 5346 5346 5346 5343 5340 5338 5337 5336 5336 5337 5336 5335 5336 5337 5338 5338 5338 5340 5341 5341 5341
5437 5433 5428 5422 5414 5409 5404 5399 5394 5388 5383 5380 5377 5372 5366 5362 5360 5359 5356 5353 5349 5346 5343 5341 5340 5339 5338 5336 5334 5333 5332 5332 5332 5333 5334 5335 5335 5335 5335 5336 5337 5338 5339 5337
5421 5416 5410 5405 5399 5393 5389 5385 5381 5377 5372 5367 5363 5360 5357 5353 5348 5347 5345 5342 5339 5340 5342 5338 5337 5336 5333 5332 5332 5330 5329 5330 5331 5332 5332 5334 5334 5333 5333 5334 5335 5335 5334 5334
5403 5399 5395 5390 5386 5380 5376 5373 5370 5366 5362 5356 5352 5350 5348 5346 5342 5339 5336 5333 5332 5332 5334 5333 5332 5331 5329 5328 5328 5327 5327 5327 5328 5329 5330 5331 5331 5332 5332 5333 5333 5332 5331 5330
5386 5383 5379 5375 5373 5370 5365 5361 5358 5356 5354 5348 5342 5340 5340 5339 5335 5330 5328 5330 5333 5329 5328 5329 5327 5325 5324 5325 5326 5325 5323 5323 5324 5325 5326 5328 5329 5330 5330 5331 5330 5329 5327 5326
5370 5367 5365 5362 5359 5358 5357 5352 5347 5344 5342 5339 5336 5332 5330 5329 5328 5325 5322 5322 5326 5326 5325 5323 5321 5321 5322 5323 5322 5320 5319 5320 5321 5322 5323 5325 5326 5327 5328 5327 5326 5325 5323 5321
5356 5354 5351 5348 5346 5345 5345 5341 5336 5332 5330 5329 5327 5325 5323 5322 5320 5318 5321 5321 5320 5320 5320 5318 5317 5319 5320 5318 5316 5315 5315 5316 5317 5319 5320 5321 5323 5323 5323 5322 5321 5320 5318 5317
5343 5340 5338 5335 5331 5328 5329 5330 5327 5324 5322 5320 5319 5317 5314 5315 5316 5314 5314 5316 5316 5316 5315 5313 5315 5315 5314 5311 5310 5310 5312 5313 5314 5315 5317 5318 5319 5319 5318 5318 5318 5316 5315 5313
5329 5326 5324 5320 5318 5318 5319 5319 5318 5316 5313 5313 5312 5311 5309 5308 5308 5311 5310 5309 5310 5311 5310 5309 5309 5309 5307 5305 5305 5306 5308 5310 5311 5313 5314 5315 5316 5315 5315 5315 5314 5313 5312 5311
5317 5315 5314 5312 5310 5309 5308 5308 5308 5309 5307 5308 5308 5307 5306 5305 5304 5304 5305 5305 5304 5306 5305 5304 5303 5302 5301 5301 5302 5303 5305 5307 5308 5309 5310 5312 5312 5312 5313 5312 5311 5310 5309 5308
5306 5304 5303 5304 5303 5300 5299 5299 5299 5301 5300 5300 5302 5302 5301 5300 5300 5300 5300 5300 5300 5300 5300 5299 5298 5297 5297 5298 5298 5300 5301 5303 5305 5306 5307 5309 5310 5310 5310 5309 5309 5308 5307 5305